• In Hungary
  • List of Countries
  • For 7 days
  • Water Temperature
  • Satellite Maps
  • Weather Map
  • News
  • Weather Widgets
  • user-avatar
    Login

    Hourly Weather Ujezdziec

    Today, 22 September, Saturday

    Time Temperature Precipitation Wind Pressure Humidity
    00:00 +16°C° 0.9 mm 5 mps 739 mmHg 83%
    01:00 +14°C° 0.9 mm 5 mps 740 mmHg 85%
    02:00 +14°C° 0.6 mm 4 mps 741 mmHg 85%
    03:00 +13°C° 0.6 mm 3 mps 741 mmHg 84%
    04:00 +12°C° 0.6 mm 3 mps 742 mmHg 83%
    05:00 +12°C° 0 mm 3 mps 742 mmHg 81%
    06:00 +12°C° 0 mm 3 mps 743 mmHg 80%
    07:00 +12°C° 0 mm 3 mps 743 mmHg 79%
    08:00 +13°C° 0 mm 4 mps 743 mmHg 71%
    09:00 +14°C° 0 mm 4 mps 743 mmHg 64%
    10:00 +15°C° 0 mm 5 mps 743 mmHg 56%
    11:00 +16°C° 0 mm 5 mps 743 mmHg 53%
    12:00 +16°C° 0 mm 5 mps 743 mmHg 50%
    13:00 +17°C° 0 mm 5 mps 743 mmHg 47%
    14:00 +17°C° 0 mm 5 mps 743 mmHg 48%
    15:00 +17°C° 0 mm 5 mps 743 mmHg 49%
    16:00 +17°C° 0 mm 4 mps 742 mmHg 50%
    17:00 +15°C° 0 mm 4 mps 743 mmHg 53%
    18:00 +14°C° 0 mm 3 mps 743 mmHg 56%
    19:00 +14°C° 0 mm 2 mps 743 mmHg 59%
    20:00 +14°C° 0 mm 2 mps 743 mmHg 59%
    21:00 +14°C° 0 mm 2 mps 743 mmHg 60%
    22:00 +14°C° 0 mm 2 mps 743 mmHg 61%
    23:00 +12°C° 0 mm 3 mps 743 mmHg 64%

    Tomorrow, 23 September, Sunday

    Time Temperature Precipitation Wind Pressure Humidity
    00:00 +12°C° 0 mm 3 mps 743 mmHg 66%
    01:00 +11°C° 0 mm 3 mps 743 mmHg 69%
    02:00 +11°C° 0 mm 3 mps 743 mmHg 70%
    03:00 +11°C° 0 mm 4 mps 742 mmHg 72%
    04:00 +11°C° 0 mm 4 mps 742 mmHg 73%
    05:00 +11°C° 0 mm 4 mps 742 mmHg 74%
    06:00 +12°C° 0 mm 4 mps 742 mmHg 75%
    07:00 +12°C° 0 mm 4 mps 742 mmHg 76%
    08:00 +12°C° 0.2 mm 4 mps 742 mmHg 76%
    09:00 +12°C° 0.2 mm 4 mps 741 mmHg 77%
    10:00 +13°C° 0.2 mm 4 mps 741 mmHg 77%
    11:00 +13°C° 0.1 mm 4 mps 741 mmHg 77%
    12:00 +13°C° 0.1 mm 4 mps 741 mmHg 78%
    13:00 +13°C° 0.1 mm 3 mps 740 mmHg 78%
    14:00 +13°C° 0.2 mm 3 mps 739 mmHg 80%
    15:00 +13°C° 0.2 mm 3 mps 738 mmHg 83%
    16:00 +13°C° 0.2 mm 3 mps 738 mmHg 85%
    17:00 +13°C° 0.2 mm 4 mps 736 mmHg 86%
    18:00 +14°C° 0.2 mm 5 mps 735 mmHg 87%
    19:00 +14°C° 0.2 mm 5 mps 734 mmHg 88%
    20:00 +15°C° 0.8 mm 7 mps 733 mmHg 87%
    21:00 +15°C° 0.8 mm 8 mps 732 mmHg 85%
    22:00 +16°C° 0.8 mm 9 mps 730 mmHg 84%
    23:00 +16°C° 3.4 mm 8 mps 730 mmHg 83%

    Day after tomorrow, 24 September, Monday

    Time Temperature Precipitation Wind Pressure Humidity
    00:00 +15°C° 3.4 mm 8 mps 729 mmHg 83%
    01:00 +15°C° 3.4 mm 7 mps 729 mmHg 83%
    02:00 +12°C° 1.2 mm 8 mps 731 mmHg 83%
    03:00 +9°C° 1.2 mm 10 mps 733 mmHg 84%
    04:00 +7°C° 1.2 mm 11 mps 735 mmHg 85%
    05:00 +7°C° 0.1 mm 10 mps 737 mmHg 83%
    06:00 +7°C° 0.1 mm 10 mps 739 mmHg 82%
    07:00 +7°C° 0.1 mm 9 mps 740 mmHg 81%
    08:00 +7°C° 0.1 mm 9 mps 741 mmHg 76%
    09:00 +8°C° 0.1 mm 10 mps 742 mmHg 70%
    10:00 +8°C° 0.1 mm 10 mps 743 mmHg 65%
    11:00 +9°C° 0.1 mm 10 mps 744 mmHg 61%
    12:00 +9°C° 0.1 mm 10 mps 745 mmHg 58%
    13:00 +11°C° 0.1 mm 10 mps 745 mmHg 54%
    14:00 +11°C° 0.1 mm 10 mps 745 mmHg 54%
    15:00 +10°C° 0.1 mm 9 mps 746 mmHg 53%
    16:00 +10°C° 0.1 mm 9 mps 746 mmHg 53%
    17:00 +9°C° 0 mm 8 mps 747 mmHg 57%
    18:00 +8°C° 0 mm 6 mps 747 mmHg 60%
    19:00 +7°C° 0 mm 5 mps 748 mmHg 64%
    20:00 +7°C° 0 mm 5 mps 748 mmHg 67%
    21:00 +6°C° 0 mm 5 mps 749 mmHg 69%
    22:00 +6°C° 0 mm 5 mps 749 mmHg 72%
    23:00 +6°C° 0 mm 4 mps 750 mmHg 73%

    25 September, Tuesday

    Time Temperature Precipitation Wind Pressure Humidity
    00:00 +5°C° 0 mm 4 mps 750 mmHg 74%
    01:00 +5°C° 0 mm 4 mps 750 mmHg 75%
    02:00 +4°C° 0 mm 4 mps 751 mmHg 77%
    03:00 +4°C° 0 mm 4 mps 751 mmHg 79%
    04:00 +4°C° 0 mm 4 mps 752 mmHg 80%
    05:00 +4°C° 0 mm 4 mps 752 mmHg 80%
    06:00 +4°C° 0 mm 4 mps 753 mmHg 79%
    07:00 +5°C° 0 mm 4 mps 753 mmHg 78%
    08:00 +6°C° 0 mm 4 mps 754 mmHg 72%
    09:00 +8°C° 0 mm 4 mps 754 mmHg 66%
    10:00 +9°C° 0 mm 5 mps 755 mmHg 60%
    11:00 +11°C° 0 mm 4 mps 755 mmHg 56%
    12:00 +11°C° 0 mm 4 mps 754 mmHg 52%
    13:00 +12°C° 0 mm 4 mps 754 mmHg 47%
    14:00 +12°C° 0 mm 4 mps 754 mmHg 48%
    15:00 +12°C° 0 mm 4 mps 754 mmHg 48%
    16:00 +12°C° 0 mm 3 mps 754 mmHg 49%
    17:00 +10°C° 0 mm 3 mps 754 mmHg 55%
    18:00 +9°C° 0 mm 2 mps 754 mmHg 60%
    19:00 +7°C° 0 mm 2 mps 754 mmHg 66%
    20:00 +7°C° 0 mm 2 mps 754 mmHg 67%
    21:00 +6°C° 0 mm 2 mps 754 mmHg 69%
    22:00 +6°C° 0 mm 2 mps 754 mmHg 70%
    23:00 +6°C° 0 mm 2 mps 754 mmHg 70%

    26 September, Wednesday

    Time Temperature Precipitation Wind Pressure Humidity
    00:00 +6°C° 0 mm 2 mps 754 mmHg 70%
    01:00 +5°C° 0 mm 3 mps 753 mmHg 70%
    02:00 +4°C° 0 mm 3 mps 753 mmHg 72%
    03:00 +4°C° 0 mm 3 mps 753 mmHg 73%
    04:00 +5°C° 0 mm 2 mps 753 mmHg 74%
    05:00 +5°C° 0 mm 3 mps 753 mmHg 73%
    06:00 +5°C° 0 mm 3 mps 753 mmHg 73%
    07:00 +5°C° 0 mm 3 mps 753 mmHg 72%
    08:00 +8°C° 0 mm 3 mps 753 mmHg 67%
    09:00 +10°C° 0 mm 4 mps 753 mmHg 63%
    10:00 +12°C° 0 mm 4 mps 753 mmHg 59%
    11:00 +13°C° 0 mm 4 mps 753 mmHg 57%
    12:00 +14°C° 0 mm 4 mps 753 mmHg 55%
    13:00 +15°C° 0 mm 4 mps 752 mmHg 53%
    14:00 +16°C° 0 mm 3 mps 752 mmHg 54%
    15:00 +16°C° 0 mm 3 mps 752 mmHg 55%
    16:00 +16°C° 0 mm 3 mps 751 mmHg 56%
    17:00 +14°C° 0 mm 2 mps 751 mmHg 62%
    18:00 +12°C° 0 mm 1 mps 751 mmHg 69%
    19:00 +10°C° 0 mm 1 mps 751 mmHg 75%
    20:00 +10°C° 0 mm 1 mps 751 mmHg 75%
    21:00 +10°C° 0 mm 1 mps 751 mmHg 75%
    22:00 +10°C° 0 mm 1 mps 751 mmHg 75%
    23:00 +8°C° 0 mm 2 mps 751 mmHg 74%

    27 September, Thursday

    Time Temperature Precipitation Wind Pressure Humidity
    00:00 +8°C° 0 mm 2 mps 751 mmHg 74%
    01:00 +8°C° 0 mm 2 mps 750 mmHg 73%
    02:00 +8°C° 0 mm 2 mps 750 mmHg 72%
    03:00 +8°C° 0 mm 2 mps 750 mmHg 70%
    04:00 +7°C° 0 mm 2 mps 749 mmHg 69%
    05:00 +8°C° 0 mm 2 mps 749 mmHg 68%
    06:00 +8°C° 0 mm 2 mps 749 mmHg 67%
    07:00 +9°C° 0 mm 3 mps 749 mmHg 66%
    08:00 +11°C° 0 mm 3 mps 748 mmHg 59%
    09:00 +13°C° 0 mm 3 mps 748 mmHg 53%
    10:00 +15°C° 0 mm 4 mps 748 mmHg 47%
    11:00 +17°C° 0 mm 4 mps 747 mmHg 45%
    12:00 +17°C° 0 mm 5 mps 746 mmHg 43%
    13:00 +19°C° 0 mm 5 mps 746 mmHg 41%
    14:00 +19°C° 0 mm 5 mps 745 mmHg 43%
    15:00 +19°C° 0 mm 4 mps 745 mmHg 45%
    16:00 +19°C° 0 mm 4 mps 744 mmHg 48%
    17:00 +17°C° 0 mm 4 mps 744 mmHg 52%
    18:00 +14°C° 0 mm 4 mps 744 mmHg 56%
    19:00 +12°C° 0 mm 3 mps 744 mmHg 60%
    20:00 +12°C° 0 mm 3 mps 744 mmHg 63%
    21:00 +11°C° 0 mm 3 mps 744 mmHg 65%
    22:00 +11°C° 0 mm 3 mps 744 mmHg 68%
    23:00 +11°C° 0 mm 3 mps 744 mmHg 70%
    Show more